FW4751 Weather Reports


time (UTC)temp
C
wind
direction
speed
KPH
gust
KPH
rain 1hr
cm
rain 24hr
cm
rain mn
cm
humidity
%
barometer
mb
20260904062005 16 315 1.6 4.8 0.03 0.03 0.03 88 1012.7
20260904061504 16 338 3.2 8.0 0.03 0.03 0.03 88 1012.6
20260904061004 16 315 1.6 8.0 0.03 0.03 0.03 88 1012.6
20260904060504 16 338 3.2 6.4 0.00 0.00 0.00 87 1012.6
20260904060009 16 338 3.2 9.7 0.00 0.00 0.00 87 1012.5
20260904055524 17 0 3.2 9.7 0.00 0.00 0.00 86 1012.4
20260904055024 17 0 3.2 6.4 0.00 0.00 0.00 85 1012.4
20260904054504 17 0 1.6 6.4 0.00 0.00 0.00 85 1012.5
20260904054004 17 338 3.2 9.7 0.00 0.00 0.00 84 1012.5
20260904053504 18 0 3.2 8.0 0.00 0.00 0.00 84 1012.5
20260904053024 18 0 3.2 8.0 0.00 0.00 0.00 83 1012.4
20260904052509 18 338 1.6 4.8 0.00 0.00 0.00 83 1012.4
20260904052009 18 23 3.2 8.0 0.00 0.00 0.00 82 1012.5
20260904051504 18 315 1.6 4.8 0.00 0.00 0.00 81 1012.5
20260904051004 18 23 1.6 4.8 0.00 0.00 0.00 81 1012.5
20260904050504 19 315 1.6 6.4 0.00 0.00 0.00 81 1012.5
20260904050004 19 338 1.6 4.8 0.00 0.00 0.00 81 1012.6
20260904045504 20 0 1.6 6.4 0.00 0.00 0.00 80 1012.5
20260904045004 20 0 1.6 4.8 0.00 0.00 0.00 80 1012.5
20260904044504 20 338 1.6 4.8 0.00 0.00 0.00 79 1012.6
20260904044004 20 0.0 3.2 0.00 0.00 0.00 79 1012.5
20260904043524 20 338 1.6 3.2 0.00 0.00 0.00 79 1012.6
20260904043009 20 315 1.6 3.2 0.00 0.00 0.00 79 1012.5
20260904042509 20 315 1.6 4.8 0.00 0.00 0.00 79 1012.5
20260904042004 20 315 1.6 6.4 0.00 0.00 0.00 78 1012.5
20260904041504 20 315 1.6 4.8 0.00 0.00 0.00 78 1012.4
20260904041004 20 315 1.6 4.8 0.00 0.00 0.00 78 1012.3
20260904040504 20 293 1.6 4.8 0.00 0.00 0.00 78 1012.4
20260904040004 20 315 1.6 4.8 0.00 0.00 0.00 78 1012.3
20260904035509 20 315 1.6 6.4 0.00 0.00 0.00 78 1012.3
20260904035009 20 315 1.6 6.4 0.00 0.00 0.00 78 1012.2
20260904034504 20 315 1.6 4.8 0.00 0.00 0.00 77 1012.1
20260904034004 20 315 1.6 6.4 0.00 0.00 0.00 77 1012.2
20260904033504 20 225 1.6 4.8 0.00 0.00 0.00 77 1012.1
20260904033004 20 248 1.6 6.4 0.00 0.00 0.00 77 1012.1
20260904032504 20 315 1.6 6.4 0.00 0.00 0.00 78 1012.0
20260904032004 20 248 1.6 6.4 0.00 0.00 0.00 77 1012.0
20260904031504 20 315 1.6 6.4 0.00 0.00 0.00 77 1012.0
20260904031005 20 248 1.6 6.4 0.00 0.00 0.00 77 1011.9
20260904030504 20 315 1.6 4.8 0.00 0.00 0.00 77 1011.9
20260904030004 20 293 1.6 4.8 0.00 0.00 0.00 77 1011.9
20260904025504 20 315 1.6 6.4 0.00 0.00 0.00 77 1011.9
20260904025004 20 338 1.6 6.4 0.00 0.00 0.00 77 1011.9
20260904024508 20 0.0 3.2 0.00 0.00 0.00 76 1012.0
20260904024004 20 248 1.6 8.0 0.00 0.00 0.00 76 1011.9
20260904023504 20 248 1.6 3.2 0.00 0.00 0.00 75 1011.9
20260904023004 21 315 1.6 6.4 0.00 0.00 0.00 75 1011.9
20260904022504 21 225 1.6 4.8 0.00 0.00 0.00 74 1011.9
20260904022004 21 248 1.6 4.8 0.00 0.00 0.00 74 1012.1
20260904021507 21 225 1.6 6.4 0.00 0.00 0.00 73 1012.1
20260904021008 21 315 1.6 4.8 0.00 0.00 0.00 73 1012.1
20260904020509 21 225 1.6 6.4 0.00 0.00 0.00 72 1012.1
20260904020003 21 225 3.2 8.0 0.00 0.00 0.00 72 1012.2
20260904015509 21 225 3.2 14.5 0.00 0.00 0.00 72 1012.1
20260904015024 21 315 1.6 6.4 0.00 0.00 0.00 72 1012.0
20260904014508 21 315 3.2 8.0 0.00 0.00 0.00 72 1012.0
20260904014009 21 338 1.6 8.0 0.00 0.00 0.00 72 1012.0
20260904013503 21 225 1.6 6.4 0.00 0.00 0.00 71 1012.0
20260904013004 21 338 3.2 16.1 0.00 0.00 0.00 71 1012.1
20260904012508 21 315 1.6 11.3 0.00 0.00 0.00 70 1012.1
20260904012004 21 315 3.2 12.9 0.00 0.00 0.00 70 1011.9
20260904011504 21 248 3.2 12.9 0.00 0.00 0.00 70 1012.1
20260904011003 21 270 3.2 16.1 0.00 0.00 0.00 69 1012.1
20260904010509 21 225 3.2 12.9 0.00 0.00 0.00 68 1012.1
20260904010009 22 315 3.2 12.9 0.00 0.00 0.00 68 1012.1
20260904005509 22 293 1.6 9.7 0.00 0.00 0.00 68 1012.2
20260904005029 22 315 3.2 9.7 0.00 0.00 0.00 67 1012.0
20260904004503 22 248 3.2 11.3 0.00 0.00 0.00 67 1012.1
20260904004009 22 315 3.2 8.0 0.00 0.00 0.00 66 1012.1
20260904003504 22 315 4.8 11.3 0.00 0.00 0.00 66 1012.1
20260904003008 22 315 3.2 12.9 0.00 0.00 0.00 65 1012.2
20260904002503 22 315 4.8 14.5 0.00 0.00 0.00 64 1012.1
20260904002028 22 248 3.2 12.9 0.00 0.00 0.00 64 1012.1
20260904001508 22 225 3.2 11.3 0.00 0.00 0.00 63 1012.2
20260904001008 22 225 3.2 11.3 0.00 0.00 0.00 62 1012.1
20260904000508 22 315 3.2 8.0 0.00 0.00 0.00 62 1012.2
20260904000003 23 315 3.2 8.0 0.00 0.00 0.00 62 1012.2
20260903235624 23 315 4.8 11.3 0.00 0.00 0.00 61 1012.1
20260903235004 23 315 3.2 9.7 0.00 0.00 0.00 61 1012.3
20260903234508 23 315 4.8 11.3 0.00 0.00 0.00 61 1012.1
20260903234026 23 315 3.2 11.3 0.00 0.00 0.00 60 1012.3
20260903233508 23 315 3.2 11.3 0.00 0.00 0.00 60 1012.1
20260903233008 23 315 1.6 8.0 0.00 0.00 0.00 60 1012.2
20260903232503 23 248 3.2 14.5 0.00 0.00 0.00 60 1012.2
20260903232028 24 248 4.8 12.9 0.00 0.00 0.00 59 1012.4
20260903231528 24 315 3.2 12.9 0.00 0.00 0.00 59 1012.4
20260903231008 24 315 4.8 12.9 0.00 0.00 0.00 58 1012.4
20260903230508 25 248 3.2 14.5 0.00 0.00 0.00 58 1012.4
20260903230008 25 315 4.8 14.5 0.00 0.00 0.00 57 1012.5
20260903225523 25 315 4.8 14.5 0.00 0.00 0.00 57 1012.5
20260903225008 25 315 3.2 11.3 0.00 0.00 0.00 55 1012.6
20260903224508 26 315 4.8 16.1 0.00 0.00 0.00 54 1012.5
20260903224008 26 270 3.2 11.3 0.00 0.00 0.00 54 1012.6
20260903223528 26 248 4.8 11.3 0.00 0.00 0.00 53 1012.5
20260903223028 26 315 4.8 11.3 0.00 0.00 0.00 53 1012.7
20260903222528 26 315 3.2 12.9 0.00 0.00 0.00 54 1012.8
20260903222008 26 315 4.8 14.5 0.00 0.00 0.00 53 1012.9
20260903221508 26 270 3.2 9.7 0.00 0.00 0.00 53 1012.9
20260903221028 26 248 3.2 11.3 0.00 0.00 0.00 54 1013.0
20260903220508 26 315 4.8 12.9 0.00 0.00 0.00 54 1013.3
20260903220023 25 315 3.2 9.7 0.00 0.00 0.00 56 1013.3
20260903215508 25 315 3.2 6.4 0.00 0.00 0.00 56 1013.3
20260903215008 25 248 3.2 9.7 0.00 0.00 0.00 57 1013.4
20260903214508 25 315 3.2 8.0 0.00 0.00 0.00 57 1013.4
20260903214006 25 315 3.2 8.0 0.00 0.00 0.00 57 1013.4
20260903213503 25 315 3.2 11.3 0.00 0.00 0.00 57 1013.5
20260903213003 25 270 1.6 4.8 0.00 0.00 0.00 57 1013.5
20260903212508 25 315 1.6 6.4 0.00 0.00 0.00 57 1013.5
20260903212008 25 315 1.6 4.8 0.00 0.00 0.00 57 1013.3
20260903211503 24 0 1.6 4.8 0.00 0.00 0.00 58 1013.4
20260903211008 24 0 1.6 6.4 0.00 0.00 0.00 59 1013.4
20260903210503 24 45 1.6 6.4 0.00 0.00 0.00 60 1013.4
20260903210010 24 23 3.2 8.0 0.00 0.00 0.00 60 1013.4
20260903205530 24 45 3.2 9.7 0.00 0.00 0.00 60 1013.4
20260903205025 24 23 3.2 8.0 0.00 0.00 0.00 60 1013.6
20260903204505 23 45 3.2 8.0 0.00 0.00 0.00 60 1013.6
20260903204025 23 45 3.2 8.0 0.00 0.00 0.00 61 1013.7
20260903203505 23 45 3.2 9.7 0.00 0.00 0.00 61 1013.6
20260903203010 23 23 3.2 6.4 0.00 0.00 0.00 60 1013.7
20260903202505 23 23 1.6 4.8 0.00 0.00 0.00 61 1013.7
20260903202010 23 45 3.2 4.8 0.00 0.00 0.00 61 1013.8
20260903201505 23 45 3.2 4.8 0.00 0.00 0.00 61 1013.9
20260903201009 23 45 3.2 6.4 0.00 0.00 0.00 60 1013.9
20260903200505 23 45 3.2 6.4 0.00 0.00 0.00 60 1014.0
20260903200008 23 45 3.2 6.4 0.00 0.00 0.00 59 1014.1
20260903195550 24 45 3.2 8.0 0.00 0.00 0.00 57 1014.0
20260903195005 25 45 3.2 6.4 0.00 0.00 0.00 56 1014.1
20260903194505 25 45 3.2 9.7 0.00 0.00 0.00 56 1014.0
20260903194010 25 45 3.2 6.4 0.00 0.00 0.00 57 1014.2
20260903193525 24 45 3.2 8.0 0.00 0.00 0.00 58 1014.2
20260903193005 24 45 3.2 6.4 0.00 0.00 0.00 57 1014.4
20260903192530 24 23 3.2 9.7 0.00 0.00 0.00 57 1014.5
20260903192005 24 23 1.6 8.0 0.00 0.00 0.00 57 1014.5
20260903191505 24 338 3.2 6.4 0.00 0.00 0.00 57 1014.4
20260903191005 24 45 1.6 4.8 0.00 0.00 0.00 57 1014.6
20260903190509 25 315 3.2 9.7 0.00 0.00 0.00 56 1014.6
20260903190025 25 315 3.2 8.0 0.00 0.00 0.00 56 1014.6
20260903185524 25 293 3.2 8.0 0.00 0.00 0.00 56 1014.6
20260903185009 25 0 3.2 11.3 0.00 0.00 0.00 56 1014.5
20260903184509 25 315 1.6 8.0 0.00 0.00 0.00 55 1014.5
20260903184010 25 315 1.6 8.0 0.00 0.00 0.00 54 1014.6
20260903183505 25 315 1.6 9.7 0.00 0.00 0.00 54 1014.6
20260903183045 25 225 1.6 4.8 0.00 0.00 0.00 55 1014.4
20260903182510 25 270 1.6 4.8 0.00 0.00 0.00 55 1014.5
20260903182024 24 225 1.6 4.8 0.00 0.00 0.00 56 1014.5
20260903181510 24 0.0 3.2 0.00 0.00 0.00 56 1014.5
20260903181011 24 113 1.6 4.8 0.00 0.00 0.00 55 1014.5
20260903180505 24 135 1.6 8.0 0.00 0.00 0.00 55 1014.7
20260903180010 23 113 1.6 8.0 0.00 0.00 0.00 57 1014.8
20260903175505 23 135 1.6 4.8 0.00 0.00 0.00 58 1014.9
20260903175010 23 135 1.6 6.4 0.00 0.00 0.00 57 1015.0
20260903174531 23 135 1.6 4.8 0.00 0.00 0.00 58 1015.1
20260903174009 23 113 1.6 6.4 0.00 0.00 0.00 59 1015.1
20260903173510 22 135 1.6 3.2 0.00 0.00 0.00 59 1015.1
20260903173009 22 158 3.2 6.4 0.00 0.00 0.00 58 1015.2
20260903172509 22 113 1.6 4.8 0.00 0.00 0.00 60 1015.1
20260903172005 22 135 1.6 4.8 0.00 0.00 0.00 60 1015.2
20260903171510 22 135 1.6 4.8 0.00 0.00 0.00 60 1015.2
20260903171009 22 135 1.6 4.8 0.00 0.00 0.00 60 1015.3
20260903170529 22 158 1.6 3.2 0.00 0.00 0.00 60 1015.3
20260903170004 22 135 1.6 3.2 0.00 0.00 0.00 62 1015.4
20260903165504 22 113 1.6 4.8 0.00 0.00 0.00 62 1015.4
20260903165024 22 135 1.6 4.8 0.00 0.00 0.00 62 1015.4
20260903164504 22 180 1.6 4.8 0.00 0.00 0.00 62 1015.4
20260903164004 21 180 1.6 6.4 0.00 0.00 0.00 62 1015.4
20260903163529 21 113 1.6 6.4 0.00 0.00 0.00 65 1015.5
20260903163004 21 135 1.6 3.2 0.00 0.00 0.00 66 1015.6
20260903162504 20 135 1.6 3.2 0.00 0.00 0.00 67 1015.7
20260903162025 20 135 1.6 4.8 0.00 0.00 0.00 68 1015.6
20260903161509 20 180 1.6 4.8 0.00 0.00 0.00 69 1015.6
20260903161030 20 180 3.2 6.4 0.00 0.00 0.00 70 1015.6
20260903160529 19 180 1.6 3.2 0.00 0.00 0.00 72 1015.8
20260903160004 19 158 1.6 6.4 0.00 0.00 0.00 73 1015.8
20260903155529 18 135 1.6 4.8 0.00 0.00 0.00 74 1015.8
20260903155004 18 158 3.2 6.4 0.00 0.00 0.00 76 1015.7
20260903154509 18 135 1.6 4.8 0.00 0.00 0.00 78 1015.7
20260903154004 17 135 1.6 4.8 0.00 0.00 0.00 78 1015.8
20260903153505 17 135 1.6 3.2 0.00 0.00 0.00 79 1015.9
20260903153004 17 135 1.6 4.8 0.00 0.00 0.00 79 1015.9
20260903152504 17 180 1.6 4.8 0.00 0.00 0.00 79 1016.0
20260903152004 16 180 1.6 4.8 0.00 0.00 0.00 80 1016.1
20260903151504 16 158 1.6 3.2 0.00 0.00 0.00 80 1016.0
20260903151004 16 135 1.6 1.6 0.00 0.00 0.00 82 1016.1
20260903150504 15 180 1.6 3.2 0.00 0.00 0.00 87 1015.9
20260903150004 14 203 1.6 3.2 0.00 0.00 0.00 89 1015.9
20260903145504 13 158 1.6 3.2 0.00 0.00 0.00 89 1016.0
20260903145024 13 135 1.6 3.2 0.00 0.00 0.00 90 1016.0
20260903144509 13 135 1.6 3.2 0.00 0.00 0.00 90 1016.0
20260903144009 13 135 1.6 3.2 0.00 0.00 0.00 90 1016.1
20260903143504 13 158 1.6 4.8 0.00 0.00 0.00 90 1016.0
20260903143005 12 135 1.6 4.8 0.00 0.00 0.00 90 1016.0
20260903142504 12 0.0 1.6 0.00 0.00 0.00 90 1015.9
20260903142004 12 0.0 3.2 0.00 0.00 0.00 89 1015.8
20260903141504 12 0.0 1.6 0.00 0.00 0.00 89 1015.9
20260903141004 12 0.0 1.6 0.00 0.00 0.00 89 1015.8
20260903140504 12 0.0 1.6 0.00 0.00 0.00 89 1016.0
20260903140004 12 0.0 1.6 0.00 0.00 0.00 89 1015.9
20260903135509 12 0.0 1.6 0.00 0.00 0.00 88 1015.8
20260903135024 12 0.0 1.6 0.00 0.00 0.00 88 1015.9
20260903134504 12 0.0 1.6 0.00 0.00 0.00 88 1015.7
20260903134004 12 0.0 1.6 0.00 0.00 0.00 88 1015.7
20260903133504 12 0.0 1.6 0.00 0.00 0.00 88 1015.7
20260903133004 12 0.0 1.6 0.00 0.00 0.00 88 1015.7
20260903132504 12 0.0 1.6 0.00 0.00 0.00 88 1015.8
20260903132004 12 0.0 1.6 0.00 0.00 0.00 88 1015.7
20260903131504 12 0.0 1.6 0.00 0.00 0.00 88 1015.7
20260903131004 12 0.0 0.0 0.00 0.00 0.00 88 1015.6
20260903130504 12 0.0 1.6 0.00 0.00 0.00 88 1015.7
20260903130004 12 0.0 1.6 0.00 0.00 0.00 88 1015.6
20260903125504 12 0.0 0.0 0.00 0.00 0.00 88 1015.6
20260903125004 12 0.0 1.6 0.00 0.00 0.00 88 1015.6
20260903124524 12 0.0 1.6 0.00 0.00 0.00 88 1015.7
20260903124004 12 0.0 1.6 0.00 0.00 0.00 88 1015.6
20260903123509 12 0.0 1.6 0.00 0.00 0.00 88 1015.8
20260903123004 12 0.0 1.6 0.00 0.00 0.00 88 1015.8
20260903122504 12 0.0 0.0 0.00 0.00 0.00 87 1015.7
20260903122004 12 0.0 0.0 0.00 0.00 0.00 87 1015.7
20260903121504 12 0.0 1.6 0.00 0.00 0.00 87 1015.8
20260903121004 12 0.0 0.0 0.00 0.00 0.00 87 1015.7
20260903120524 12 0.0 1.6 0.00 0.00 0.00 87 1015.9
20260903120004 12 0.0 1.6 0.00 0.00 0.00 87 1015.9
20260903115504 12 0.0 1.6 0.00 0.00 0.00 87 1015.9
20260903115003 12 0.0 1.6 0.00 0.00 0.00 86 1016.0
20260903114605 12 0.0 1.6 0.00 0.00 0.00 86 1016.0
20260903114004 12 0.0 1.6 0.00 0.00 0.00 86 1015.9
20260903113503 12 0.0 1.6 0.00 0.00 0.00 86 1016.1
20260903113004 12 0.0 1.6 0.00 0.00 0.00 86 1016.1
20260903112504 12 0.0 1.6 0.00 0.00 0.00 86 1016.2
20260903112009 12 0.0 1.6 0.00 0.00 0.00 86 1016.2
20260903111504 12 0.0 1.6 0.00 0.00 0.00 85 1016.3
20260903111003 12 0.0 1.6 0.00 0.00 0.00 85 1016.3
20260903110504 12 0.0 1.6 0.00 0.00 0.00 85 1016.3
20260903110008 12 0.0 1.6 0.00 0.00 0.00 85 1016.3
20260903105524 12 0.0 1.6 0.00 0.00 0.00 86 1016.3
20260903105004 13 0.0 1.6 0.00 0.00 0.00 86 1016.4
20260903104504 13 0.0 1.6 0.00 0.00 0.00 86 1016.4
20260903104008 13 0.0 1.6 0.00 0.00 0.00 86 1016.4
20260903103523 13 0.0 1.6 0.00 0.00 0.00 86 1016.4
20260903103029 13 0.0 1.6 0.00 0.00 0.00 86 1016.4
20260903102510 13 0.0 1.6 0.00 0.00 0.00 86 1016.4
20260903102003 13 0.0 1.6 0.00 0.00 0.00 86 1016.3
20260903101504 13 0.0 1.6 0.00 0.00 0.00 85 1016.4
20260903101003 13 0.0 1.6 0.00 0.00 0.00 85 1016.4
20260903100508 13 0.0 1.6 0.00 0.00 0.00 85 1016.3
20260903100044 13 0.0 1.6 0.00 0.00 0.00 85 1016.4
20260903095503 13 0.0 1.6 0.00 0.00 0.00 85 1016.4
20260903095003 13 0.0 1.6 0.00 0.00 0.00 85 1016.5
20260903094509 13 0.0 1.6 0.00 0.00 0.00 85 1016.5
20260903094003 13 0.0 1.6 0.00 0.00 0.00 85 1016.5
20260903093503 13 0.0 1.6 0.00 0.00 0.00 85 1016.6
20260903093008 13 0.0 1.6 0.00 0.00 0.00 84 1016.7
20260903092528 13 0.0 1.6 0.00 0.00 0.00 84 1016.7
20260903092024 13 0.0 1.6 0.00 0.00 0.00 84 1016.8
20260903091523 13 0.0 1.6 0.00 0.00 0.00 84 1016.8
20260903091003 13 0.0 1.6 0.00 0.00 0.00 84 1016.8
20260903090503 13 0.0 1.6 0.00 0.00 0.00 84 1016.9
20260903090004 13 0.0 1.6 0.00 0.00 0.00 84 1017.0
20260903085503 13 0.0 1.6 0.00 0.00 0.00 84 1016.9
20260903085008 13 0.0 1.6 0.00 0.00 0.00 83 1017.0
20260903084503 13 0.0 1.6 0.00 0.00 0.00 83 1016.9
20260903084024 13 0.0 1.6 0.00 0.00 0.00 83 1016.9
20260903083523 13 0.0 1.6 0.00 0.00 0.00 83 1017.0
20260903083008 13 0.0 1.6 0.00 0.00 0.00 83 1017.0
20260903082503 14 0.0 0.0 0.00 0.00 0.00 83 1016.9
20260903082003 14 0.0 1.6 0.00 0.00 0.00 83 1017.0
20260903081528 14 0.0 1.6 0.00 0.00 0.00 83 1017.1
20260903081008 14 0.0 1.6 0.00 0.00 0.00 83 1017.0
20260903080528 14 0.0 1.6 0.00 0.00 0.00 83 1017.1
20260903080004 14 0.0 1.6 0.00 0.00 0.00 83 1017.0
20260903075503 14 0.0 1.6 0.00 0.00 0.00 83 1017.0
20260903075008 14 0.0 1.6 0.00 0.00 0.00 83 1016.8
20260903074503 15 0.0 1.6 0.00 0.00 0.00 83 1016.8
20260903074023 15 0.0 1.6 0.00 0.00 0.00 83 1016.8
20260903073508 15 0.0 1.6 0.00 0.00 0.00 83 1016.9
20260903073008 15 0.0 0.0 0.00 0.00 0.00 83 1016.7
20260903072503 15 0.0 1.6 0.00 0.00 0.00 83 1016.7
20260903072003 15 0.0 1.6 0.00 0.00 0.00 83 1016.7
20260903071508 15 0.0 0.0 0.00 0.00 0.00 83 1016.7
20260903071003 15 0.0 1.6 0.00 0.00 0.00 83 1016.8
20260903070503 15 0.0 1.6 0.00 0.00 0.00 83 1016.7
20260903070005 15 0.0 1.6 0.00 0.00 0.00 83 1016.7
20260903065528 15 0.0 0.0 0.00 0.00 0.00 82 1016.8
20260903065003 15 0.0 1.6 0.00 0.00 0.00 82 1016.9
20260903064508 15 0.0 1.6 0.00 0.00 0.00 82 1016.7
20260903064003 16 0.0 1.6 0.00 0.00 0.00 82 1016.8
20260903063503 16 0.0 1.6 0.00 0.00 0.00 81 1016.8
20260903063005 16 0.0 1.6 0.00 0.00 0.00 82 1016.8
20260903062510 16 0.0 1.6 0.00 0.00 0.00 82 1016.9